Location: Grundy Observatory
(40.0525°N, 76.3328°W)
Time: 13:59:25
(UTC-04:00)

Daily predictions for brighter satellites

Satellite Brightness Start Highest point End
(mag) Time Altitude Azimuth Time Altitude Azimuth Time Altitude Azimuth
Cosmos 1626 Rocket 4.4 20:00:40 10° NNE 20:04:34 30° ENE 20:08:24 10° SE
Cosmos 1892 Rocket 3.7 20:02:14 10° N 20:06:44 85° W 20:11:12 10° S
Cosmos 1455 Rocket 3.0 20:04:12 10° S 20:08:30 72° E 20:12:52 10° NNE
Meteor 1-29 3.0 20:05:38 10° NNE 20:09:07 87° W 20:12:35 10° SSW
Cosmos 1975 3.5 20:06:45 10° SSE 20:10:27 34° E 20:14:11 10° NNE
Cosmos 220 Rocket 4.3 20:08:16 10° N 20:12:20 45° ENE 20:16:22 10° SE
NOSS 3-4 (A) 4.2 20:06:54 10° NW 20:13:56 70° WSW 20:21:21 10° SSE
NOSS 3-4 (C) 4.2 20:07:01 10° NW 20:14:03 71° WSW 20:21:29 10° SSE
Cosmos 2227 Rocket 2.2 20:08:29 10° NNW 20:14:11 87° ENE 20:19:50 10° SSE
Lacrosse 5 rocket 1.1 20:10:34 10° NW 20:14:18 79° SW 20:17:54 10° SE
Cosmos 1602 Rocket 4.1 20:10:38 10° N 20:14:50 39° ENE 20:18:58 10° SSE
Tiangong 1 1.5 20:12:02 10° WNW 20:15:06 54° N 20:18:09 10° E
CZ-2D R/B 3.6 20:15:12 10° SSE 20:18:53 46° ENE 20:22:38 10° N
Cosmos 1500 4.2 20:16:55 10° SSE 20:20:04 26° E 20:23:14 10° NNE
FengYun 1-2 T 4.3 20:17:50 10° SSE 20:23:29 89° WSW 20:29:07 10° NNW
Cosmos 2123 Rocket 4.0 20:17:26 10° N 20:23:39 83° E 20:29:50 10° S
Resurs 1-3 3.9 20:21:50 10° S 20:26:11 70° WSW 20:30:34 10° NNW
Cosmos 2297 Rocket 2.2 20:23:24 10° NNW 20:29:06 83° ENE 20:34:45 10° SSE
Okean 2 4.4 20:26:11 10° NNW 20:30:14 50° W 20:34:13 10° SSW
Cosmos 2082 3.9 20:25:14 10° NNW 20:30:51 74° WSW 20:36:27 10° SSE
Helios 1B rocket 4.0 20:27:29 10° N 20:31:22 41° WNW 20:35:13 10° SW
CZ-4B DEB 3.0 20:28:25 10° S 20:31:41 77° WSW 20:34:59 10° NNW
SL-24 R/B - RUBIN 2 4.4 20:29:36 10° SSW 20:35:26 89° WNW 20:41:58 10° NNE
Meteor 1-12 Rocket 4.2 20:29:50 10° S 20:35:33 78° E 20:41:26 10° NNE
Iridium 4 Rocket 3.3 20:36:15 10° N 20:41:07 56° E 20:45:32 10° SSE
Cosmos 1346 Rocket 4.3 20:40:19 10° NNW 20:44:01 38° W 20:47:44 10° SSW
Cosmos 1515 3.7 20:41:05 10° N 20:44:55 61° E 20:48:36 11° SSE
Envisat 3.9 20:46:26 18° ESE 20:49:21 31° ENE 20:53:47 10° N
Cosmos 1939 Rocket 3.9 20:48:13 21° ESE 20:50:04 29° ENE 20:53:42 10° N
Lacrosse 5 1.9 20:45:24 10° NW 20:50:27 66° NE 20:53:46 21° ESE
Cosmos 1937 Rocket 3.7 20:46:02 10° N 20:51:12 52° ENE 20:54:56 18° SE
Resurs 01 Rocket 3.8 20:49:19 10° SSW 20:53:05 27° W 20:56:52 10° NW
Cosmos 2298 Rocket 4.0 20:49:17 10° NNW 20:54:38 86° ENE 20:59:37 12° SSE
Cosmos 1153 Rocket 4.4 20:48:28 10° S 20:54:39 87° E 21:00:50 10° N
SPOT 5 4.1 20:58:57 21° E 21:00:23 24° ENE 21:04:13 10° NNE
Cosmos 990 Rocket 4.4 20:55:21 10° N 21:00:25 46° ENE 21:03:09 25° SE
Cosmos 1743 3.0 20:59:22 17° SSE 21:02:03 47° E 21:05:49 10° NNE
Cosmos 1697 Rocket 2.7 20:57:04 10° SSW 21:02:44 86° WNW 21:08:25 10° NNE
SJ-11-01 4.3 21:03:16 21° SSE 21:06:22 63° ENE 21:11:01 10° N
Cosmos 1066 Rocket 4.2 21:02:09 10° N 21:07:53 84° E 21:13:21 12° S
Cosmos 1726 Rocket 4.1 21:09:03 32° ESE 21:09:59 36° E 21:14:01 10° NNE
ERS-1 Rocket 2.9 21:08:34 22° SSE 21:11:44 66° ENE 21:16:43 10° N
Cosmos 1802 Rocket 4.1 21:05:31 10° S 21:11:46 59° E 21:18:05 10° NNE
SL-16 R/B 3.3 21:16:08 24° E 21:16:08 24° E 21:19:36 10° NE
RESURS DK-1 2.3 21:12:57 10° NNW 21:17:07 84° WSW 21:18:51 34° SSE
Cosmos 2016 Rocket 4.0 21:14:02 13° SSE 21:19:19 56° E 21:25:23 10° NNE
CZ-4 DEB 2.6 21:19:01 53° S 21:19:40 83° WSW 21:22:50 10° NNW
Cosmos 2150 Rocket 4.3 21:14:49 10° NNW 21:19:55 64° WSW 21:23:51 17° S
Cosmos 1763 Rocket 3.3 21:19:25 10° S 21:24:29 72° ESE 21:29:33 10° NNE
Cosmos 1825 Rocket 3.4 21:20:56 10° N 21:25:22 77° E 21:26:56 39° SSE
USA 186 4.0 21:23:06 10° SSW 21:25:30 21° W 21:27:48 10° NW
ALOS 4.2 21:21:48 10° SSW 21:25:49 28° W 21:29:51 10° NW
Cosmos 1980 Rocket 2.1 21:21:02 10° SSW 21:26:43 90° WNW 21:32:27 10° NNE
OAO 2 Rocket 3.8 21:22:21 10° W 21:27:07 44° S 21:28:13 38° SSE
Cosmos 2173 Rocket 4.0 21:24:57 10° S 21:31:19 85° W 21:37:41 10° N
Cosmos 1898 Rocket 4.4 21:28:01 10° NNW 21:33:04 45° WSW 21:37:06 15° S
SPOT 1/Viking Rocket 4.4 21:34:23 31° ENE 21:34:42 31° ENE 21:39:15 10° N
Cosmos 2098 Rocket 4.0 21:31:58 25° SSE 21:35:57 58° E 21:41:30 10° NNE
Cosmos 1953 Rocket 3.5 21:32:32 10° N 21:37:00 75° E 21:37:48 58° SSE
Cosmos 1842 3.8 21:33:46 10° N 21:36:55 43° NE 21:36:55 43° NE
H-2A R/B 1.9 21:37:53 63° E 21:38:02 63° ENE 21:42:09 10° N
Cosmos 1125 Rocket 3.9 21:34:24 10° N 21:39:20 42° ENE 21:39:49 41° E
Cosmos 2228 4.2 21:43:11 29° NE 21:43:11 29° NE 21:45:40 10° NNE
Nimbus 7 Rocket 4.4 21:35:47 10° NNE 21:41:50 69° ESE 21:45:42 23° S
Cosmos 967 Rocket 4.4 21:36:25 10° NNW 21:42:47 90° ENE 21:45:05 42° SSE
SWAS 4.4 21:44:01 66° ENE 21:44:01 66° ENE 21:47:56 10° NNE
Cosmos 1666 3.4 21:45:24 43° NNE 21:45:24 43° NNE 21:48:06 10° NNE
Cosmos 1864 Rocket 4.4 21:46:03 43° SSE 21:47:52 62° E 21:53:54 10° NNE
Cosmos 841 Rocket 3.5 21:43:36 10° SSW 21:48:51 79° WNW 21:54:05 10° NNE
CZ-3C R/B 4.2 21:24:58 10° W 21:50:25 25° SW 21:55:35 17° S
Tiangong 1 3.0 21:48:35 10° W 21:50:13 26° W 21:50:13 26° W
YAOGAN 6 3.7 21:53:36 37° NNE 21:53:36 37° NNE 21:56:03 10° N
Cosmos 2263 Rocket 3.2 21:47:53 10° N 21:52:43 29° ENE 21:52:51 29° ENE
Cosmos 1758 Rocket 3.5 21:51:04 10° N 21:55:25 79° W 21:55:33 78° WSW
ASTEX 1 3.3 21:53:16 10° N 21:58:18 88° E 21:58:58 68° S
Cosmos 2322 Rocket 2.0 22:00:47 67° ESE 22:00:49 67° ESE 22:06:25 10° NNE
Tsikada Rocket 3.9 21:54:38 10° N 22:01:05 74° E 22:02:25 56° SE
Cosmos 1340 3.9 22:00:11 10° NNW 22:03:42 37° W 22:03:55 36° WSW
deb Chang Zheng 4 4.0 22:00:21 10° N 22:04:46 64° WNW 22:05:36 52° SW
Meteor 2-17 Rocket 4.4 22:08:22 58° E 22:08:22 58° E 22:14:05 10° NNE
Meteor 1-15 Rocket 4.2 22:08:01 53° S 22:09:33 90° W 22:15:27 10° N
MetOp-A 4.1 22:12:56 68° SSW 22:13:29 76° WSW 22:18:53 10° NNW
Meteor 2-9 Rocket 4.3 22:12:18 46° SSW 22:13:53 71° W 22:19:18 10° N
Cosmos 372 Rocket 4.5 22:09:58 10° N 22:14:12 48° NE 22:14:12 48° NE
Cosmos 1816 Rocket 4.3 22:11:31 10° N 22:17:55 78° E 22:18:25 73° SE
Cosmos 1725 Rocket 4.1 22:18:11 41° SSW 22:20:27 72° W 22:26:43 10° N
Cosmos 2058 Rocket 4.0 22:22:24 44° W 22:22:47 45° WNW 22:27:07 10° N
Milstar 3 Cent rocket 4.5 22:09:03 10° W 22:27:13 41° SSW 22:30:15 36° S
Lacrosse 5 3.8 22:29:23 10° WNW 22:32:57 19° WSW 22:32:58 19° WSW
BREEZE-M DEB (TANK) 4.5 22:34:30 10° WNW 22:35:26 22° WNW 22:35:26 22° WNW
SPOT 5 4.0 22:38:12 37° W 22:38:15 37° W 22:42:43 10° NNW
Cosmos 2233 Rocket 4.0 22:43:02 78° WNW 22:43:02 78° WNW 22:49:15 10° N
H-2A R/B 3.2 22:56:29 36° N 22:56:29 36° N 22:59:24 10° N
Terra 3.5 22:59:15 29° N 22:59:15 29° N 23:01:36 10° N
ARGOS 4.0 22:57:44 46° WNW 22:57:44 46° WNW 23:02:07 10° NNW
SL-16 R/B 3.2 22:57:52 40° W 22:58:51 44° WNW 23:04:16 10° N
Cosmos 1844 Rocket 4.5 22:59:35 10° N 23:02:32 22° NNE 23:02:32 22° NNE
Cosmos 2360 Rocket 3.8 23:14:22 26° NNE 23:14:22 26° NNE 23:16:45 10° NNE
BREEZE-M DEB (TANK) 4.1 22:50:13 10° WNW 23:14:25 89° NE 23:14:38 86° ESE
USA 215 3.6 23:21:34 61° N 23:21:34 61° N 23:27:10 10° NW
BREEZE-M DEB (TANK) 4.3 23:21:32 10° WNW 23:31:51 51° WNW 23:31:51 51° WNW
Cosmos 2263 Rocket 3.8 23:31:33 10° NW 23:34:33 28° WNW 23:34:33 28° WNW
